Location: Harmony
(28.2000°N, 81.1500°W)
Time: 19:37:12
(UTC-05:00)

BREEZE-M DEB (TANK) - Pass Details

Date: 18 December 2017
Orbit: 288 x 14315 km, 49.5° (Epoch: 21 January)

Event Time Altitude Azimuth Distance (km) Brightness Sun altitude
Rises 17:47:47 0° 313° (NW) 2,125 6.1 -4.0°
Reaches altitude 10° 17:49:06 10° 313° (NW) 1,471 5.3 -4.2°
Maximum altitude 17:51:53 86° 224° (SW) 643 3.2 -4.8°
Drops below altitude 10° 17:59:49 10° 137° (SE) 4,060 7.0 -6.4°
Sets 18:06:06 0° 137° (SE) 6,742 8.1 -7.7°
